Year,Month,Day,Hour,Minute,Value (Times are PST for temperature in C)
2013,07,24,00,00,18.40
2013,07,24,00,01,18.40
2013,07,24,00,02,18.40
2013,07,24,00,03,18.40
2013,07,24,00,04,18.40
2013,07,24,00,05,18.40
2013,07,24,00,06,18.40
2013,07,24,00,07,18.40
2013,07,24,00,08,18.40
2013,07,24,00,09,18.40
2013,07,24,00,10,18.40
2013,07,24,00,11,18.40
2013,07,24,00,12,18.40
2013,07,24,00,13,18.40
2013,07,24,00,14,18.40
2013,07,24,00,15,18.40
2013,07,24,00,16,18.40
2013,07,24,00,17,18.40
2013,07,24,00,18,18.40
2013,07,24,00,19,18.40
2013,07,24,00,20,18.40
2013,07,24,00,21,18.40
2013,07,24,00,22,18.40
2013,07,24,00,23,18.40
2013,07,24,00,24,18.40
2013,07,24,00,25,18.40
2013,07,24,00,26,18.40
2013,07,24,00,27,18.40
2013,07,24,00,28,18.40
2013,07,24,00,29,18.50
2013,07,24,00,30,18.50
2013,07,24,00,31,18.50
2013,07,24,00,32,18.50
2013,07,24,00,33,18.50
2013,07,24,00,34,18.50
2013,07,24,00,35,18.50
2013,07,24,00,36,18.50
2013,07,24,00,37,18.60
2013,07,24,00,38,18.60
2013,07,24,00,39,18.60
2013,07,24,00,40,18.60
2013,07,24,00,41,18.60
2013,07,24,00,42,18.60
2013,07,24,00,43,18.60
2013,07,24,00,44,18.60
2013,07,24,00,45,18.50
2013,07,24,00,46,18.50
2013,07,24,00,47,18.50
2013,07,24,00,48,18.50
2013,07,24,00,49,18.40
2013,07,24,00,50,18.40
2013,07,24,00,51,18.40
2013,07,24,00,52,18.30
2013,07,24,00,53,18.30
2013,07,24,00,54,18.30
2013,07,24,00,55,18.20
2013,07,24,00,56,18.20
2013,07,24,00,57,18.20
2013,07,24,00,58,18.20
2013,07,24,00,59,18.20
2013,07,24,01,00,18.20
2013,07,24,01,01,18.20
2013,07,24,01,02,18.20
2013,07,24,01,03,18.20
2013,07,24,01,04,18.20
2013,07,24,01,05,18.20
2013,07,24,01,06,18.20
2013,07,24,01,07,18.20
2013,07,24,01,08,18.20
2013,07,24,01,09,18.20
2013,07,24,01,10,18.20
2013,07,24,01,11,18.20
2013,07,24,01,12,18.20
2013,07,24,01,13,18.30
2013,07,24,01,14,18.30
2013,07,24,01,15,18.30
2013,07,24,01,16,18.30
2013,07,24,01,17,18.30
2013,07,24,01,18,18.30
2013,07,24,01,19,18.40
2013,07,24,01,20,18.40
2013,07,24,01,21,18.40
2013,07,24,01,22,18.40
2013,07,24,01,23,18.40
2013,07,24,01,24,18.40
2013,07,24,01,25,18.40
2013,07,24,01,26,18.40
2013,07,24,01,27,18.40
2013,07,24,01,28,18.40
2013,07,24,01,29,18.30
2013,07,24,01,30,18.30
2013,07,24,01,31,18.30
2013,07,24,01,32,18.30
2013,07,24,01,33,18.20
2013,07,24,01,34,18.20
2013,07,24,01,35,18.20
2013,07,24,01,36,18.20
2013,07,24,01,37,18.10
2013,07,24,01,38,18.10
2013,07,24,01,39,18.00
2013,07,24,01,40,17.90
2013,07,24,01,41,17.90
2013,07,24,01,42,17.90
2013,07,24,01,43,17.90
2013,07,24,01,44,17.80
2013,07,24,01,45,17.80
2013,07,24,01,46,17.70
2013,07,24,01,47,17.70
2013,07,24,01,48,17.70
2013,07,24,01,49,17.70
2013,07,24,01,50,17.70
2013,07,24,01,51,17.70
2013,07,24,01,52,17.70
2013,07,24,01,53,17.70
2013,07,24,01,54,17.70
2013,07,24,01,55,17.70
2013,07,24,01,56,17.70
2013,07,24,01,57,17.70
2013,07,24,01,58,17.70
2013,07,24,01,59,17.60
2013,07,24,02,00,17.50
2013,07,24,02,01,17.50
2013,07,24,02,02,17.50
2013,07,24,02,03,17.40
2013,07,24,02,04,17.40
2013,07,24,02,05,17.30
2013,07,24,02,06,17.30
2013,07,24,02,07,17.30
2013,07,24,02,08,17.30
2013,07,24,02,09,17.30
2013,07,24,02,10,17.30
2013,07,24,02,11,17.30
2013,07,24,02,12,17.30
2013,07,24,02,13,17.30
2013,07,24,02,14,17.30
2013,07,24,02,15,17.30
2013,07,24,02,16,17.30
2013,07,24,02,17,17.30
2013,07,24,02,18,17.30
2013,07,24,02,19,17.30
2013,07,24,02,20,17.30
2013,07,24,02,21,17.30
2013,07,24,02,22,17.30
2013,07,24,02,23,17.30
2013,07,24,02,24,17.30
2013,07,24,02,25,17.20
2013,07,24,02,26,17.20
2013,07,24,02,27,17.20
2013,07,24,02,28,17.20
2013,07,24,02,29,17.10
2013,07,24,02,30,17.10
2013,07,24,02,31,17.10
2013,07,24,02,32,17.00
2013,07,24,02,33,17.00
2013,07,24,02,34,16.90
2013,07,24,02,35,16.90
2013,07,24,02,36,16.90
2013,07,24,02,37,16.80
2013,07,24,02,38,16.80
2013,07,24,02,39,16.70
2013,07,24,02,40,16.70
2013,07,24,02,41,16.70
2013,07,24,02,42,16.70
2013,07,24,02,43,16.60
2013,07,24,02,44,16.60
2013,07,24,02,45,16.60
2013,07,24,02,46,16.60
2013,07,24,02,47,16.60
2013,07,24,02,48,16.50
2013,07,24,02,49,16.40
2013,07,24,02,50,16.40
2013,07,24,02,51,16.40
2013,07,24,02,52,16.40
2013,07,24,02,53,16.40
2013,07,24,02,54,16.40
2013,07,24,02,55,16.40
2013,07,24,02,56,16.30
2013,07,24,02,57,16.30
2013,07,24,02,58,16.30
2013,07,24,02,59,16.30
2013,07,24,03,00,16.20
2013,07,24,03,01,16.20
2013,07,24,03,02,16.20
2013,07,24,03,03,16.10
2013,07,24,03,04,16.10
2013,07,24,03,05,16.10
2013,07,24,03,06,16.10
2013,07,24,03,07,16.10
2013,07,24,03,08,16.00
2013,07,24,03,09,15.90
2013,07,24,03,10,15.90
2013,07,24,03,11,15.80
2013,07,24,03,12,15.80
2013,07,24,03,13,15.80
2013,07,24,03,14,15.80
2013,07,24,03,15,15.80
2013,07,24,03,16,15.80
2013,07,24,03,17,15.70
2013,07,24,03,18,15.70
2013,07,24,03,19,15.70
2013,07,24,03,20,15.70
2013,07,24,03,21,15.70
2013,07,24,03,22,15.70
2013,07,24,03,23,15.70
2013,07,24,03,24,15.70
2013,07,24,03,25,15.70
2013,07,24,03,26,15.70
2013,07,24,03,27,15.70
2013,07,24,03,28,15.70
2013,07,24,03,29,15.70
2013,07,24,03,30,15.70
2013,07,24,03,31,15.60
2013,07,24,03,32,15.60
2013,07,24,03,33,15.60
2013,07,24,03,34,15.60
2013,07,24,03,35,15.60
2013,07,24,03,36,15.60
2013,07,24,03,37,15.60
2013,07,24,03,38,15.60
2013,07,24,03,39,15.60
2013,07,24,03,40,15.50
2013,07,24,03,41,15.50
2013,07,24,03,42,15.50
2013,07,24,03,43,15.50
2013,07,24,03,44,15.50
2013,07,24,03,45,15.50
2013,07,24,03,46,15.50
2013,07,24,03,47,15.40
2013,07,24,03,48,15.40
2013,07,24,03,49,15.40
2013,07,24,03,50,15.40
2013,07,24,03,51,15.30
2013,07,24,03,52,15.30
2013,07,24,03,53,15.30
2013,07,24,03,54,15.30
2013,07,24,03,55,15.30
2013,07,24,03,56,15.30
2013,07,24,03,57,15.30
2013,07,24,03,58,15.30
2013,07,24,03,59,15.20
2013,07,24,04,00,15.20
2013,07,24,04,01,15.20
2013,07,24,04,02,15.20
2013,07,24,04,03,15.20
2013,07,24,04,04,15.10
2013,07,24,04,05,15.10
2013,07,24,04,06,15.10
2013,07,24,04,07,15.00
2013,07,24,04,08,15.00
2013,07,24,04,09,15.00
2013,07,24,04,10,15.00
2013,07,24,04,11,14.90
2013,07,24,04,12,14.90
2013,07,24,04,13,14.90
2013,07,24,04,14,14.90
2013,07,24,04,15,14.90
2013,07,24,04,16,14.80
2013,07,24,04,17,14.80
2013,07,24,04,18,14.80
2013,07,24,04,19,14.80
2013,07,24,04,20,14.80
2013,07,24,04,21,14.80
2013,07,24,04,22,14.80
2013,07,24,04,23,14.80
2013,07,24,04,24,14.80
2013,07,24,04,25,14.70
2013,07,24,04,26,14.70
2013,07,24,04,27,14.70
2013,07,24,04,28,14.70
2013,07,24,04,29,14.70
2013,07,24,04,30,14.60
2013,07,24,04,31,14.60
2013,07,24,04,32,14.60
2013,07,24,04,33,14.60
2013,07,24,04,34,14.60
2013,07,24,04,35,14.60
2013,07,24,04,36,14.50
2013,07,24,04,37,14.50
2013,07,24,04,38,14.50
2013,07,24,04,39,14.50
2013,07,24,04,40,14.50
2013,07,24,04,41,14.50
2013,07,24,04,42,14.50
2013,07,24,04,43,14.50
2013,07,24,04,44,14.50
2013,07,24,04,45,14.50
2013,07,24,04,46,14.50
2013,07,24,04,47,14.50
2013,07,24,04,48,14.50
2013,07,24,04,49,14.50
2013,07,24,04,50,14.50
2013,07,24,04,51,14.50
2013,07,24,04,52,14.50
2013,07,24,04,53,14.50
2013,07,24,04,54,14.50
2013,07,24,04,55,14.50
2013,07,24,04,56,14.50
2013,07,24,04,57,14.50
2013,07,24,04,58,14.50
2013,07,24,04,59,14.50
2013,07,24,05,00,14.50
2013,07,24,05,01,14.50
2013,07,24,05,02,14.50
2013,07,24,05,03,14.50
2013,07,24,05,04,14.50
2013,07,24,05,05,14.50
2013,07,24,05,06,14.50
2013,07,24,05,07,14.50
2013,07,24,05,08,14.40
2013,07,24,05,09,14.40
2013,07,24,05,10,14.40
2013,07,24,05,11,14.40
2013,07,24,05,12,14.40
2013,07,24,05,13,14.40
2013,07,24,05,14,14.40
2013,07,24,05,15,14.30
2013,07,24,05,16,14.30
2013,07,24,05,17,14.30
2013,07,24,05,18,14.30
2013,07,24,05,19,14.30
2013,07,24,05,20,14.30
2013,07,24,05,21,14.30
2013,07,24,05,22,14.20
2013,07,24,05,23,14.20
2013,07,24,05,24,14.20
2013,07,24,05,25,14.20
2013,07,24,05,26,14.20
2013,07,24,05,27,14.20
2013,07,24,05,28,14.20
2013,07,24,05,29,14.20
2013,07,24,05,30,14.20
2013,07,24,05,31,14.20
2013,07,24,05,32,14.20
2013,07,24,05,33,14.20
2013,07,24,05,34,14.20
2013,07,24,05,35,14.20
2013,07,24,05,36,14.20
2013,07,24,05,37,14.20
2013,07,24,05,38,14.20
2013,07,24,05,39,14.20
2013,07,24,05,40,14.20
2013,07,24,05,41,14.10
2013,07,24,05,42,14.10
2013,07,24,05,43,14.10
2013,07,24,05,44,14.10
2013,07,24,05,45,14.10
2013,07,24,05,46,14.10
2013,07,24,05,47,14.10
2013,07,24,05,48,14.10
2013,07,24,05,49,14.10
2013,07,24,05,50,14.10
2013,07,24,05,51,14.10
2013,07,24,05,52,14.10
2013,07,24,05,53,14.10
2013,07,24,05,54,14.00
2013,07,24,05,55,14.00
2013,07,24,05,56,14.00
2013,07,24,05,57,14.00
2013,07,24,05,58,14.00
2013,07,24,05,59,13.90
2013,07,24,06,00,13.90
2013,07,24,06,01,13.90
2013,07,24,06,02,13.90
2013,07,24,06,03,13.90
2013,07,24,06,04,13.90
2013,07,24,06,05,13.90
2013,07,24,06,06,13.90
2013,07,24,06,07,14.00
2013,07,24,06,08,14.00
2013,07,24,06,09,14.00
2013,07,24,06,10,14.00
2013,07,24,06,11,14.00
2013,07,24,06,12,14.00
2013,07,24,06,13,14.00
2013,07,24,06,14,14.10
2013,07,24,06,15,14.10
2013,07,24,06,16,14.10
2013,07,24,06,17,14.10
2013,07,24,06,18,14.10
2013,07,24,06,19,14.10
2013,07,24,06,20,14.10
2013,07,24,06,21,14.10
2013,07,24,06,22,14.10
2013,07,24,06,23,14.10
2013,07,24,06,24,14.10
2013,07,24,06,25,14.20
2013,07,24,06,26,14.20
2013,07,24,06,27,14.20
2013,07,24,06,28,14.20
2013,07,24,06,29,14.30
2013,07,24,06,30,14.40
2013,07,24,06,31,14.50
2013,07,24,06,32,14.60
2013,07,24,06,33,14.60
2013,07,24,06,34,14.70
2013,07,24,06,35,14.80
2013,07,24,06,36,14.80
2013,07,24,06,37,14.80
2013,07,24,06,38,14.90
2013,07,24,06,39,14.90
2013,07,24,06,40,15.00
2013,07,24,06,41,15.00
2013,07,24,06,42,15.10
2013,07,24,06,43,15.10
2013,07,24,06,44,15.20
2013,07,24,06,45,15.30
2013,07,24,06,46,15.30
2013,07,24,06,47,15.40
2013,07,24,06,48,15.50
2013,07,24,06,49,15.50
2013,07,24,06,50,15.60
2013,07,24,06,51,15.70
2013,07,24,06,52,15.80
2013,07,24,06,53,15.80
2013,07,24,06,54,15.90
2013,07,24,06,55,16.00
2013,07,24,06,56,16.10
2013,07,24,06,57,16.20
2013,07,24,06,58,16.20
2013,07,24,06,59,16.30
2013,07,24,07,00,16.40
2013,07,24,07,01,16.40
2013,07,24,07,02,16.40
2013,07,24,07,03,16.50
2013,07,24,07,04,16.60
2013,07,24,07,05,16.70
2013,07,24,07,06,16.70
2013,07,24,07,07,16.80
2013,07,24,07,08,16.90
2013,07,24,07,09,17.00
2013,07,24,07,10,17.00
2013,07,24,07,11,17.10
2013,07,24,07,12,17.20
2013,07,24,07,13,17.30
2013,07,24,07,14,17.40
2013,07,24,07,15,17.50
2013,07,24,07,16,17.60
2013,07,24,07,17,17.70
2013,07,24,07,18,17.80
2013,07,24,07,19,17.90
2013,07,24,07,20,17.90
2013,07,24,07,21,17.90
2013,07,24,07,22,18.10
2013,07,24,07,23,18.10
2013,07,24,07,24,18.20
2013,07,24,07,25,18.20
2013,07,24,07,26,18.20
2013,07,24,07,27,18.30
2013,07,24,07,28,18.40
2013,07,24,07,29,18.50
2013,07,24,07,30,18.60
2013,07,24,07,31,18.60
2013,07,24,07,32,18.70
2013,07,24,07,33,18.80
2013,07,24,07,34,18.90
2013,07,24,07,35,19.00
2013,07,24,07,36,19.10
2013,07,24,07,37,19.10
2013,07,24,07,38,19.20
2013,07,24,07,39,19.30
2013,07,24,07,40,19.40
2013,07,24,07,41,19.40
2013,07,24,07,42,19.50
2013,07,24,07,43,19.60
2013,07,24,07,44,19.60
2013,07,24,07,45,19.70
2013,07,24,07,46,19.80
2013,07,24,07,47,19.80
2013,07,24,07,48,19.90
2013,07,24,07,49,19.90
2013,07,24,07,50,19.90
2013,07,24,07,51,20.00
2013,07,24,07,52,20.10
2013,07,24,07,53,20.10
2013,07,24,07,54,20.20
2013,07,24,07,55,20.20
2013,07,24,07,56,20.20
2013,07,24,07,57,20.20
2013,07,24,07,58,20.20
2013,07,24,07,59,20.20
2013,07,24,08,00,20.20
2013,07,24,08,01,20.20
2013,07,24,08,02,20.20
2013,07,24,08,03,20.20
2013,07,24,08,04,20.30
2013,07,24,08,05,20.30
2013,07,24,08,06,20.20
2013,07,24,08,07,20.20
2013,07,24,08,08,20.20
2013,07,24,08,09,20.30
2013,07,24,08,10,20.30
2013,07,24,08,11,20.30
2013,07,24,08,12,20.30
2013,07,24,08,13,20.40
2013,07,24,08,14,20.40
2013,07,24,08,15,20.40
2013,07,24,08,16,20.40
2013,07,24,08,17,20.40
2013,07,24,08,18,20.40
2013,07,24,08,19,20.20
2013,07,24,08,20,20.20
2013,07,24,08,21,20.20
2013,07,24,08,22,20.10
2013,07,24,08,23,19.90
2013,07,24,08,24,19.70
2013,07,24,08,25,19.50
2013,07,24,08,26,19.40
2013,07,24,08,27,19.20
2013,07,24,08,28,19.10
2013,07,24,08,29,19.10
2013,07,24,08,30,19.10
2013,07,24,08,31,19.10
2013,07,24,08,32,19.20
2013,07,24,08,33,19.30
2013,07,24,08,34,19.40
2013,07,24,08,35,19.40
2013,07,24,08,36,19.40
2013,07,24,08,37,19.40
2013,07,24,08,38,19.50
2013,07,24,08,39,19.40
2013,07,24,08,40,19.30
2013,07,24,08,41,19.10
2013,07,24,08,42,19.10
2013,07,24,08,43,19.10
2013,07,24,08,44,19.10
2013,07,24,08,45,19.20
2013,07,24,08,46,19.30
2013,07,24,08,47,19.40
2013,07,24,08,48,19.40
2013,07,24,08,49,19.60
2013,07,24,08,50,19.70
2013,07,24,08,51,19.80
2013,07,24,08,52,19.80
2013,07,24,08,53,19.90
2013,07,24,08,54,19.90
2013,07,24,08,55,20.00
2013,07,24,08,56,20.10
2013,07,24,08,57,20.20
2013,07,24,08,58,20.30
2013,07,24,08,59,20.50
2013,07,24,09,00,20.60
2013,07,24,09,01,20.70
2013,07,24,09,02,20.70
2013,07,24,09,03,20.80
2013,07,24,09,04,20.90
2013,07,24,09,05,20.90
2013,07,24,09,06,20.90
2013,07,24,09,07,21.00
2013,07,24,09,08,21.10
2013,07,24,09,09,21.20
2013,07,24,09,10,21.20
2013,07,24,09,11,21.30
2013,07,24,09,12,21.30
2013,07,24,09,13,21.30
2013,07,24,09,14,21.60
2013,07,24,09,15,21.70
2013,07,24,09,16,21.80
2013,07,24,09,17,21.80
2013,07,24,09,18,21.70
2013,07,24,09,19,21.70
2013,07,24,09,20,21.70
2013,07,24,09,21,21.80
2013,07,24,09,22,21.90
2013,07,24,09,23,22.00
2013,07,24,09,24,22.10
2013,07,24,09,25,22.10
2013,07,24,09,26,22.20
2013,07,24,09,27,22.20
2013,07,24,09,28,22.30
2013,07,24,09,29,22.30
2013,07,24,09,30,22.30
2013,07,24,09,31,22.30
2013,07,24,09,32,22.40
2013,07,24,09,33,22.40
2013,07,24,09,34,22.50
2013,07,24,09,35,22.50
2013,07,24,09,36,22.60
2013,07,24,09,37,22.70
2013,07,24,09,38,22.60
2013,07,24,09,39,22.50
2013,07,24,09,40,22.60
2013,07,24,09,41,22.60
2013,07,24,09,42,22.70
2013,07,24,09,43,22.80
2013,07,24,09,44,22.80
2013,07,24,09,45,22.80
2013,07,24,09,46,22.80
2013,07,24,09,47,22.90
2013,07,24,09,48,22.90
2013,07,24,09,49,22.90
2013,07,24,09,50,22.80
2013,07,24,09,51,22.60
2013,07,24,09,52,22.60
2013,07,24,09,53,22.50
2013,07,24,09,54,22.50
2013,07,24,09,55,22.40
2013,07,24,09,56,22.40
2013,07,24,09,57,22.50
2013,07,24,09,58,22.60
2013,07,24,09,59,22.60
2013,07,24,10,00,22.70
2013,07,24,10,01,22.70
2013,07,24,10,02,22.80
2013,07,24,10,03,22.80
2013,07,24,10,04,22.90
2013,07,24,10,05,22.90
2013,07,24,10,06,22.90
2013,07,24,10,07,23.00
2013,07,24,10,08,23.20
2013,07,24,10,09,23.30
2013,07,24,10,10,23.30
2013,07,24,10,11,23.40
2013,07,24,10,12,23.40
2013,07,24,10,13,23.40
2013,07,24,10,14,23.50
2013,07,24,10,15,23.60
2013,07,24,10,16,23.70
2013,07,24,10,17,23.70
2013,07,24,10,18,23.70
2013,07,24,10,19,23.70
2013,07,24,10,20,23.70
2013,07,24,10,21,23.70
2013,07,24,10,22,23.70
2013,07,24,10,23,23.70
2013,07,24,10,24,23.80
2013,07,24,10,25,23.80
2013,07,24,10,26,23.80
2013,07,24,10,27,23.70
2013,07,24,10,28,23.70
2013,07,24,10,29,23.70
2013,07,24,10,30,23.70
2013,07,24,10,31,23.80
2013,07,24,10,32,23.90
2013,07,24,10,33,24.00
2013,07,24,10,34,24.10
2013,07,24,10,35,24.20
2013,07,24,10,36,24.30
2013,07,24,10,37,24.40
2013,07,24,10,38,24.50
2013,07,24,10,39,24.50
2013,07,24,10,40,24.50
2013,07,24,10,41,24.50
2013,07,24,10,42,24.50
2013,07,24,10,43,24.50
2013,07,24,10,44,24.50
2013,07,24,10,45,24.50
2013,07,24,10,46,24.40
2013,07,24,10,47,24.30
2013,07,24,10,48,24.30
2013,07,24,10,49,24.40
2013,07,24,10,50,24.40
2013,07,24,10,51,24.30
2013,07,24,10,52,24.10
2013,07,24,10,53,24.10
2013,07,24,10,54,23.90
2013,07,24,10,55,23.80
2013,07,24,10,56,23.80
2013,07,24,10,57,23.80
2013,07,24,10,58,23.80
2013,07,24,10,59,23.60
2013,07,24,11,00,23.50
2013,07,24,11,01,23.40
2013,07,24,11,02,23.40
2013,07,24,11,03,23.40
2013,07,24,11,04,23.50
2013,07,24,11,05,23.70
2013,07,24,11,06,23.80
2013,07,24,11,07,23.80
2013,07,24,11,08,23.90
2013,07,24,11,09,24.00
2013,07,24,11,10,24.10
2013,07,24,11,11,24.10
2013,07,24,11,12,24.10
2013,07,24,11,13,24.10
2013,07,24,11,14,24.10
2013,07,24,11,15,24.10
2013,07,24,11,16,24.10
2013,07,24,11,17,24.20
2013,07,24,11,18,24.20
2013,07,24,11,19,24.30
2013,07,24,11,20,24.40
2013,07,24,11,21,24.30
2013,07,24,11,22,24.10
2013,07,24,11,23,24.10
2013,07,24,11,24,24.00
2013,07,24,11,25,23.90
2013,07,24,11,26,23.90
2013,07,24,11,27,23.90
2013,07,24,11,28,23.90
2013,07,24,11,29,23.90
2013,07,24,11,30,23.90
2013,07,24,11,31,23.90
2013,07,24,11,32,23.90
2013,07,24,11,33,24.00
2013,07,24,11,34,24.10
2013,07,24,11,35,24.20
2013,07,24,11,36,24.40
2013,07,24,11,37,24.50
2013,07,24,11,38,24.60
2013,07,24,11,39,24.70
2013,07,24,11,40,24.90
2013,07,24,11,41,25.00
2013,07,24,11,42,25.20
2013,07,24,11,43,25.30
2013,07,24,11,44,25.30
2013,07,24,11,45,25.30
2013,07,24,11,46,25.30
2013,07,24,11,47,25.20
2013,07,24,11,48,25.20
2013,07,24,11,49,25.20
2013,07,24,11,50,25.30
2013,07,24,11,51,25.40
2013,07,24,11,52,25.40
2013,07,24,11,53,25.30
2013,07,24,11,54,25.30
2013,07,24,11,55,25.20
2013,07,24,11,56,25.20
2013,07,24,11,57,25.10
2013,07,24,11,58,24.90
2013,07,24,11,59,24.90
2013,07,24,12,00,25.00
2013,07,24,12,01,25.10
2013,07,24,12,02,25.10
2013,07,24,12,03,25.10
2013,07,24,12,04,25.10
2013,07,24,12,05,25.10
2013,07,24,12,06,24.90
2013,07,24,12,07,24.90
2013,07,24,12,08,24.80
2013,07,24,12,09,24.60
2013,07,24,12,10,24.50
2013,07,24,12,11,24.30
2013,07,24,12,12,24.20
2013,07,24,12,13,24.30
2013,07,24,12,14,24.30
2013,07,24,12,15,24.40
2013,07,24,12,16,24.40
2013,07,24,12,17,24.40
2013,07,24,12,18,24.40
2013,07,24,12,19,24.40
2013,07,24,12,20,24.50
2013,07,24,12,21,24.60
2013,07,24,12,22,24.60
2013,07,24,12,23,24.50
2013,07,24,12,24,24.60
2013,07,24,12,25,24.60
2013,07,24,12,26,24.70
2013,07,24,12,27,24.90
2013,07,24,12,28,24.90
2013,07,24,12,29,24.90
2013,07,24,12,30,25.00
2013,07,24,12,31,25.00
2013,07,24,12,32,24.90
2013,07,24,12,33,24.70
2013,07,24,12,34,24.70
2013,07,24,12,35,24.70
2013,07,24,12,36,24.70
2013,07,24,12,37,24.70
2013,07,24,12,38,24.80
2013,07,24,12,39,24.80
2013,07,24,12,40,24.90
2013,07,24,12,41,25.00
2013,07,24,12,42,25.00
2013,07,24,12,43,25.00
2013,07,24,12,44,25.10
2013,07,24,12,45,25.20
2013,07,24,12,46,25.20
2013,07,24,12,47,25.20
2013,07,24,12,48,25.20
2013,07,24,12,49,25.20
2013,07,24,12,50,25.20
2013,07,24,12,51,25.20
2013,07,24,12,52,25.00
2013,07,24,12,53,24.90
2013,07,24,12,54,24.90
2013,07,24,12,55,24.80
2013,07,24,12,56,24.70
2013,07,24,12,57,24.70
2013,07,24,12,58,24.80
2013,07,24,12,59,24.80
2013,07,24,13,00,24.90
2013,07,24,13,01,25.00
2013,07,24,13,02,25.00
2013,07,24,13,03,24.90
2013,07,24,13,04,24.90
2013,07,24,13,05,24.90
2013,07,24,13,06,24.90
2013,07,24,13,07,24.80
2013,07,24,13,08,24.70
2013,07,24,13,09,24.50
2013,07,24,13,10,24.40
2013,07,24,13,11,24.30
2013,07,24,13,12,24.20
2013,07,24,13,13,24.10
2013,07,24,13,14,24.20
2013,07,24,13,15,24.20
2013,07,24,13,16,24.20
2013,07,24,13,17,24.10
2013,07,24,13,18,24.10
2013,07,24,13,19,24.00
2013,07,24,13,20,23.80
2013,07,24,13,21,23.80
2013,07,24,13,22,23.70
2013,07,24,13,23,23.70
2013,07,24,13,24,23.70
2013,07,24,13,25,23.60
2013,07,24,13,26,23.60
2013,07,24,13,27,23.60
2013,07,24,13,28,23.60
2013,07,24,13,29,23.70
2013,07,24,13,30,23.70
2013,07,24,13,31,23.90
2013,07,24,13,32,24.00
2013,07,24,13,33,24.00
2013,07,24,13,34,24.10
2013,07,24,13,35,24.10
2013,07,24,13,36,24.10
2013,07,24,13,37,24.20
2013,07,24,13,38,24.20
2013,07,24,13,39,24.30
2013,07,24,13,40,24.40
2013,07,24,13,41,24.50
2013,07,24,13,42,24.50
2013,07,24,13,43,24.50
2013,07,24,13,44,24.60
2013,07,24,13,45,24.60
2013,07,24,13,46,24.60
2013,07,24,13,47,24.60
2013,07,24,13,48,24.60
2013,07,24,13,49,24.50
2013,07,24,13,50,24.40
2013,07,24,13,51,24.40
2013,07,24,13,52,24.30
2013,07,24,13,53,24.20
2013,07,24,13,54,24.20
2013,07,24,13,55,24.30
2013,07,24,13,56,24.30
2013,07,24,13,57,24.50
2013,07,24,13,58,24.50
2013,07,24,13,59,24.30
2013,07,24,14,00,24.40
2013,07,24,14,01,24.50
2013,07,24,14,02,24.60
2013,07,24,14,03,24.80
2013,07,24,14,04,24.90
2013,07,24,14,05,25.00
2013,07,24,14,06,25.00
2013,07,24,14,07,25.00
2013,07,24,14,08,25.10
2013,07,24,14,09,25.20
2013,07,24,14,10,25.20
2013,07,24,14,11,25.20
2013,07,24,14,12,25.30
2013,07,24,14,13,25.40
2013,07,24,14,14,25.40
2013,07,24,14,15,25.30
2013,07,24,14,16,25.10
2013,07,24,14,17,24.90
2013,07,24,14,18,24.80
2013,07,24,14,19,24.70
2013,07,24,14,20,24.60
2013,07,24,14,21,24.60
2013,07,24,14,22,24.60
2013,07,24,14,23,24.70
2013,07,24,14,24,24.80
2013,07,24,14,25,24.90
2013,07,24,14,26,25.00
2013,07,24,14,27,25.10
2013,07,24,14,28,25.10
2013,07,24,14,29,25.00
2013,07,24,14,30,24.90
2013,07,24,14,31,24.80
2013,07,24,14,32,24.90
2013,07,24,14,33,24.90
2013,07,24,14,34,25.00
2013,07,24,14,35,25.10
2013,07,24,14,36,25.10
2013,07,24,14,37,25.10
2013,07,24,14,38,25.30
2013,07,24,14,39,25.40
2013,07,24,14,40,25.40
2013,07,24,14,41,25.50
2013,07,24,14,42,25.60
2013,07,24,14,43,25.60
2013,07,24,14,44,25.70
2013,07,24,14,45,25.70
2013,07,24,14,46,25.60
2013,07,24,14,47,25.60
2013,07,24,14,48,25.60
2013,07,24,14,49,25.60
2013,07,24,14,50,25.70
2013,07,24,14,51,25.70
2013,07,24,14,52,25.60
2013,07,24,14,53,25.70
2013,07,24,14,54,25.70
2013,07,24,14,55,25.90
2013,07,24,14,56,25.90
2013,07,24,14,57,25.80
2013,07,24,14,58,25.70
2013,07,24,14,59,25.60
2013,07,24,15,00,25.60
2013,07,24,15,01,25.60
2013,07,24,15,02,25.60
2013,07,24,15,03,25.60
2013,07,24,15,04,25.60
2013,07,24,15,05,25.50
2013,07,24,15,06,25.60
2013,07,24,15,07,25.80
2013,07,24,15,08,25.90
2013,07,24,15,09,26.00
2013,07,24,15,10,26.10
2013,07,24,15,11,26.10
2013,07,24,15,12,26.20
2013,07,24,15,13,26.20
2013,07,24,15,14,26.20
2013,07,24,15,15,26.00
2013,07,24,15,16,25.90
2013,07,24,15,17,25.90
2013,07,24,15,18,26.00
2013,07,24,15,19,26.00
2013,07,24,15,20,26.00
2013,07,24,15,21,26.00
2013,07,24,15,22,26.10
2013,07,24,15,23,26.20
2013,07,24,15,24,26.30
2013,07,24,15,25,26.30
2013,07,24,15,26,26.40
2013,07,24,15,27,26.50
2013,07,24,15,28,26.60
2013,07,24,15,29,26.70
2013,07,24,15,30,26.80
2013,07,24,15,31,26.90
2013,07,24,15,32,27.00
2013,07,24,15,33,27.10
2013,07,24,15,34,27.10
2013,07,24,15,35,27.10
2013,07,24,15,36,27.10
2013,07,24,15,37,27.10
2013,07,24,15,38,27.10
2013,07,24,15,39,27.20
2013,07,24,15,40,27.30
2013,07,24,15,41,27.40
2013,07,24,15,42,27.50
2013,07,24,15,43,27.60
2013,07,24,15,44,27.70
2013,07,24,15,45,27.70
2013,07,24,15,46,27.70
2013,07,24,15,47,27.70
2013,07,24,15,48,27.70
2013,07,24,15,49,27.70
2013,07,24,15,50,27.70
2013,07,24,15,51,27.70
2013,07,24,15,52,27.60
2013,07,24,15,53,27.40
2013,07,24,15,54,27.30
2013,07,24,15,55,27.20
2013,07,24,15,56,27.20
2013,07,24,15,57,27.30
2013,07,24,15,58,27.30
2013,07,24,15,59,27.30
2013,07,24,16,00,27.40
2013,07,24,16,01,27.50
2013,07,24,16,02,27.50
2013,07,24,16,03,27.40
2013,07,24,16,04,27.30
2013,07,24,16,05,27.30
2013,07,24,16,06,27.40
2013,07,24,16,07,27.50
2013,07,24,16,08,27.60
2013,07,24,16,09,27.60
2013,07,24,16,10,27.70
2013,07,24,16,11,27.80
2013,07,24,16,12,27.70
2013,07,24,16,13,27.70
2013,07,24,16,14,27.70
2013,07,24,16,15,27.70
2013,07,24,16,16,27.80
2013,07,24,16,17,27.80
2013,07,24,16,18,27.90
2013,07,24,16,19,28.00
2013,07,24,16,20,28.10
2013,07,24,16,21,28.20
2013,07,24,16,22,28.30
2013,07,24,16,23,28.30
2013,07,24,16,24,28.30
2013,07,24,16,25,28.20
2013,07,24,16,26,28.20
2013,07,24,16,27,28.20
2013,07,24,16,28,28.30
2013,07,24,16,29,28.30
2013,07,24,16,30,28.40
2013,07,24,16,31,28.50
2013,07,24,16,32,28.60
2013,07,24,16,33,28.60
2013,07,24,16,34,28.70
2013,07,24,16,35,28.80
2013,07,24,16,36,28.80
2013,07,24,16,37,28.80
2013,07,24,16,38,28.80
2013,07,24,16,39,28.90
2013,07,24,16,40,28.90
2013,07,24,16,41,28.80
2013,07,24,16,42,28.60
2013,07,24,16,43,28.60
2013,07,24,16,44,28.60
2013,07,24,16,45,28.60
2013,07,24,16,46,28.50
2013,07,24,16,47,28.30
2013,07,24,16,48,28.20
2013,07,24,16,49,28.20
2013,07,24,16,50,28.20
2013,07,24,16,51,28.20
2013,07,24,16,52,28.10
2013,07,24,16,53,27.90
2013,07,24,16,54,27.90
2013,07,24,16,55,27.80
2013,07,24,16,56,27.80
2013,07,24,16,57,27.70
2013,07,24,16,58,27.60
2013,07,24,16,59,27.60
2013,07,24,17,00,27.60
2013,07,24,17,01,27.80
2013,07,24,17,02,27.90
2013,07,24,17,03,27.90
2013,07,24,17,04,28.00
2013,07,24,17,05,28.00
2013,07,24,17,06,28.10
2013,07,24,17,07,28.10
2013,07,24,17,08,28.10
2013,07,24,17,09,28.10
2013,07,24,17,10,28.00
2013,07,24,17,11,28.00
2013,07,24,17,12,28.10
2013,07,24,17,13,28.10
2013,07,24,17,14,28.10
2013,07,24,17,15,28.10
2013,07,24,17,16,28.10
2013,07,24,17,17,28.00
2013,07,24,17,18,27.90
2013,07,24,17,19,27.80